Theta_e
298 297 295 293 292 292 292 292 292 292 292 292 291 291 291 291 291 291 289 289 288 288 288 288 288 289 288 288 288 289 289 290 290 289 292 293 296 297 299 300 301 302 303
296 295 293 291 291 291 291 291 291 292 291 291 290 290 289 290 289 290 289 289 287 287 286 286 287 287 287 287 288 288 288 288 290 287 287 288 291 298 296 296 297 300 302
295 293 291 290 290 290 291 291 291 291 290 290 288 287 287 287 287 288 288 288 287 286 286 286 286 286 287 286 286 287 286 284 287 288 287 285 285 289 293 294 295 296 299
295 293 291 289 289 290 292 291 290 289 289 289 287 287 286 286 287 286 286 286 286 285 285 285 285 285 286 285 286 285 285 285 283 286 287 288 287 284 285 291 293 294 295
295 293 291 290 290 291 291 290 290 289 288 288 287 287 285 286 286 284 284 285 285 285 284 284 284 284 285 285 285 284 284 285 283 283 284 285 285 287 285 283 286 291 294
296 295 293 291 289 290 290 290 289 287 287 287 287 286 285 284 283 283 282 283 283 283 283 283 283 283 283 283 284 284 283 283 283 283 283 282 283 283 283 283 284 285 288
295 293 290 289 288 289 289 289 288 286 286 286 286 285 284 283 282 281 281 281 281 281 282 282 281 282 282 282 282 282 282 282 282 282 282 284 284 283 283 282 282 281 286
294 292 291 289 289 288 288 288 288 286 285 285 284 283 282 281 281 280 280 279 279 280 280 280 280 280 280 280 281 281 281 281 281 281 281 282 282 283 283 282 281 280 282
292 291 291 290 288 288 288 288 287 286 284 283 283 281 280 279 279 278 278 278 279 278 278 278 278 278 279 279 279 279 279 280 280 280 281 281 282 282 282 282 281 279 275
293 291 290 289 289 288 289 288 288 286 284 282 281 280 279 278 277 277 276 277 277 277 276 276 276 276 277 277 277 277 278 278 279 279 279 279 280 280 281 281 280 280 279
294 292 290 290 289 289 288 288 287 284 282 281 279 278 277 276 276 275 276 276 275 275 275 275 274 274 274 275 275 275 275 275 275 276 277 277 278 278 279 279 279 280 279
297 294 291 289 288 287 287 286 285 282 281 279 278 276 276 275 274 275 275 274 274 274 273 273 272 272 272 273 272 272 272 272 272 272 273 274 275 275 277 277 277 277 278
295 293 290 288 287 287 285 285 283 281 279 277 276 275 274 274 273 273 273 273 272 272 272 271 271 270 270 270 270 270 270 270 270 270 270 271 272 273 274 274 275 276 276
295 295 290 288 287 286 284 283 281 279 277 275 274 274 274 273 272 272 272 271 271 270 270 270 269 269 269 269 269 269 269 270 271 271 271 272 272 272 272 273 274 275 274
292 293 290 288 286 285 283 281 280 277 275 274 273 273 272 271 271 270 270 270 269 269 269 268 268 269 269 269 269 270 270 270 271 272 272 273 273 274 275 274 274 274 274
296 292 288 286 284 283 281 279 278 275 274 273 273 271 270 270 269 269 268 267 267 267 267 267 268 268 268 270 272 272 272 271 271 271 272 272 273 274 276 277 278 278 275
295 295 288 285 283 282 280 278 275 274 272 272 271 269 269 268 267 266 266 266 266 266 266 267 267 267 267 270 272 273 272 272 272 272 272 273 274 275 275 277 278 278 280
295 292 288 287 284 282 279 277 273 272 271 271 268 268 267 266 266 265 265 265 266 266 266 266 266 267 267 270 271 272 272 272 272 272 272 272 274 275 276 276 276 277 277
298 296 290 287 283 280 277 273 272 271 270 268 268 267 266 264 264 262 264 264 265 265 264 266 265 265 265 269 271 272 271 271 272 273 273 273 273 275 276 275 275 277 279
291 284 283 281 279 276 273 271 271 270 269 269 267 266 265 262 261 263 262 264 263 264 265 265 265 265 265 269 271 272 272 271 272 273 274 275 274 276 277 276 276 275 278
281 281 279 276 275 273 273 272 270 269 269 267 266 264 263 261 261 261 262 262 262 263 263 264 266 267 269 269 272 274 273 272 272 272 272 273 274 275 276 277 276 278 280
277 276 275 274 272 273 273 270 269 268 266 265 264 262 260 262 262 259 261 261 262 263 263 265 267 269 269 270 272 274 275 275 271 270 271 272 274 276 277 277 278 280 281
276 275 274 271 271 272 273 270 266 265 264 263 261 260 260 261 260 260 261 264 263 264 264 266 266 267 268 270 272 274 274 273 270 271 272 272 272 275 275 276 278 278 278
274 274 271 270 269 271 271 267 265 264 261 261 261 261 261 261 261 263 264 263 264 264 265 266 266 266 268 269 272 272 271 271 270 270 267 269 271 272 275 275 277 278 278
274 273 271 270 268 269 265 264 263 261 261 262 262 262 262 262 262 262 262 264 265 266 266 266 267 266 266 269 272 272 270 269 270 266 265 266 267 268 268 269 271 272 274
273 272 271 268 266 265 264 262 261 262 262 262 261 261 261 261 261 261 262 262 264 266 267 268 269 268 270 272 272 272 271 270 270 263 262 263 264 266 266 267 268 269 270
Wind_Speed
18 19 20 19 18 18 17 16 15 13 9 7 5 4 4 3 2 3 4 5 5 6 6 6 7 7 7 8 9 9 11 8 10 12 12 12 15 12 11 10 10 13 13
16 18 20 21 21 20 18 17 16 14 10 6 4 2 2 1 3 4 6 6 5 6 6 7 8 8 7 8 8 9 8 8 5 8 11 10 13 3 11 13 13 16 13
17 19 21 23 21 21 21 18 17 14 11 9 6 4 2 3 4 6 4 4 6 6 7 8 9 8 7 7 8 8 9 8 8 7 6 7 8 17 6 13 13 15 12
14 17 21 23 24 22 19 19 16 14 11 11 7 8 6 6 4 3 5 6 7 8 8 9 9 8 7 9 8 7 8 9 10 7 8 11 11 7 16 8 13 15 17
15 18 20 20 21 19 18 18 16 15 13 12 10 8 9 5 4 5 8 8 9 9 8 9 9 10 8 9 10 11 11 10 10 10 10 11 11 14 12 20 15 13 13
13 13 14 17 18 18 18 18 18 16 15 14 14 13 10 8 7 7 5 6 7 7 9 9 10 10 10 10 10 11 13 13 13 12 12 12 10 10 12 14 22 20 15
11 13 16 18 19 21 21 18 20 19 16 15 14 12 11 10 9 7 7 7 7 7 9 9 10 9 11 11 12 13 14 14 14 16 13 12 13 13 13 13 15 19 16
8 12 16 17 20 20 23 22 21 20 18 15 14 12 11 6 7 7 5 6 8 9 9 9 10 12 13 13 13 12 12 14 14 19 16 13 13 13 13 14 13 17 19
11 13 15 17 18 20 23 23 22 19 18 16 13 12 10 9 7 7 7 7 9 7 10 11 11 12 13 14 14 12 15 15 16 17 18 16 13 13 14 14 15 15 19
10 12 14 17 17 19 20 22 22 21 19 16 12 10 10 8 6 6 9 8 9 9 10 10 11 12 13 14 14 13 15 16 14 13 19 17 15 16 14 14 14 16 17
13 13 14 16 16 17 20 20 21 21 18 15 13 11 9 8 6 6 6 7 8 9 10 10 10 12 13 14 14 15 16 18 19 19 20 22 21 15 14 14 15 15 15
12 12 13 15 17 19 20 21 20 19 17 15 13 11 9 8 7 6 6 6 8 8 9 10 11 12 13 13 14 16 16 18 20 20 21 22 16 21 18 15 19 16 18
14 12 12 16 18 18 18 19 20 19 16 15 13 11 10 8 6 6 6 6 7 8 8 9 11 12 13 14 14 15 17 18 19 20 21 22 21 20 16 18 17 15 14
14 16 15 16 16 16 19 20 20 18 17 15 13 11 10 8 6 5 6 6 6 8 9 9 11 12 13 14 14 15 17 19 19 21 21 22 21 21 21 18 18 16 16
14 19 16 15 16 17 19 19 19 18 17 15 13 11 8 6 5 5 5 5 5 6 9 10 11 12 12 10 14 17 19 21 22 21 21 21 23 30 28 16 17 18 15
21 18 16 15 17 20 20 19 19 18 16 14 12 10 9 7 5 4 4 5 6 7 8 10 10 12 10 19 23 23 18 20 21 20 20 21 24 24 33 34 37 29 19
24 17 17 18 18 21 21 22 19 17 15 14 12 11 9 7 5 4 4 5 6 7 8 9 10 13 14 21 25 27 18 19 20 21 20 18 16 22 20 27 34 32 34
22 12 14 14 16 17 18 17 17 16 15 14 13 11 10 8 5 5 4 5 5 6 8 10 11 12 12 22 25 28 20 18 21 20 20 21 21 21 21 20 21 22 22
19 13 12 13 16 18 19 18 16 15 14 13 12 11 9 8 6 3 4 4 5 6 8 9 12 13 15 23 26 25 18 18 20 19 20 20 21 27 33 23 22 23 18
6 7 9 11 16 18 20 21 18 16 15 13 11 9 7 6 5 4 2 3 5 7 7 11 11 15 15 22 25 24 14 18 16 20 20 25 23 31 32 22 19 19 20
8 12 16 15 15 15 17 19 15 14 14 13 12 10 7 6 5 4 0 3 5 6 7 10 12 14 14 16 24 27 16 15 17 15 16 15 30 34 34 34 20 19 21
12 14 15 14 13 17 18 15 15 13 13 13 12 9 7 5 5 4 2 1 4 6 8 10 11 10 13 19 22 29 30 30 17 17 15 17 33 35 34 28 30 33 29
10 11 14 17 15 16 17 18 15 14 14 13 11 9 8 6 5 4 3 1 2 4 7 9 10 11 11 11 25 27 30 29 19 15 25 34 34 30 24 26 27 24 13
13 12 15 16 16 13 15 16 17 15 11 12 11 9 7 6 5 4 3 2 2 4 7 8 10 11 11 11 13 13 14 19 17 20 15 22 25 25 18 14 14 10 11
14 14 15 16 18 16 17 17 17 16 14 12 10 10 7 6 5 4 3 2 1 5 7 8 9 10 11 13 23 22 16 14 18 17 12 13 13 13 12 12 12 11 11
17 17 18 19 19 17 16 15 14 15 15 13 9 8 6 4 4 4 3 2 2 8 9 13 11 9 18 25 26 28 27 26 27 11 12 13 14 13 14 13 13 12 14
Wind_Direction
224 205 200 194 189 189 187 189 185 185 181 183 186 189 187 188 240 215 252 254 284 291 297 294 295 290 294 310 311 307 308 309 315 307 313 296 277 268 265 277 284 285 277
222 204 196 195 193 189 191 192 192 186 191 185 171 165 166 227 267 260 251 252 288 284 292 298 295 290 292 299 308 315 306 301 307 315 298 318 308 179 327 294 284 287 294
214 201 201 199 194 194 193 193 193 189 186 176 158 154 194 247 239 231 240 261 269 288 285 278 279 290 301 299 294 294 296 293 296 289 286 309 300 328 302 316 289 289 290
213 203 201 201 198 196 192 193 189 185 182 177 182 199 215 226 222 269 270 282 292 293 281 283 286 294 286 279 281 283 282 284 278 285 239 250 282 298 311 295 301 298 280
201 201 202 202 199 191 189 189 186 183 178 183 192 197 217 237 268 282 287 288 290 282 287 283 285 279 274 278 280 281 275 271 273 270 272 274 263 261 270 290 292 284 280
196 205 200 198 196 192 191 186 186 186 183 184 192 202 212 218 230 240 260 266 272 289 277 269 272 277 282 280 284 283 278 278 274 273 270 265 260 264 266 267 288 285 285
185 188 190 192 191 193 193 187 187 188 185 189 193 199 207 218 236 245 249 268 279 269 267 284 292 295 297 295 289 282 277 275 273 271 270 266 262 266 265 264 269 282 284
205 203 195 195 193 192 195 191 190 188 185 188 191 194 202 211 224 241 264 267 266 272 291 293 291 291 295 293 288 283 277 274 273 271 267 267 260 256 257 253 262 277 279
206 205 203 197 195 195 196 193 187 189 185 185 185 189 192 202 214 228 241 255 264 281 292 292 295 296 291 287 285 279 280 279 276 272 271 267 264 258 256 258 254 259 272
214 209 204 204 201 198 197 195 190 186 180 181 184 184 187 198 210 228 242 259 277 283 286 291 296 297 293 289 286 284 280 278 275 273 273 268 265 262 257 255 258 251 254
216 207 211 203 207 199 195 191 190 183 175 176 174 179 185 190 207 231 257 268 279 283 289 299 299 295 293 291 287 283 282 278 277 274 272 270 269 265 260 258 258 257 262
217 213 210 203 200 201 194 191 187 180 173 171 171 181 180 188 208 226 250 268 280 289 298 306 299 293 291 293 291 290 286 284 283 282 279 276 275 270 267 263 262 262 262
217 221 211 209 207 201 193 188 187 180 164 166 172 177 187 190 204 235 260 270 282 294 300 297 295 298 299 297 293 291 289 288 285 283 280 278 275 272 269 262 264 267 269
230 227 219 217 211 197 192 186 185 175 164 169 174 180 184 186 206 225 248 265 289 301 299 295 292 292 295 297 296 294 294 289 284 281 276 274 270 269 269 263 264 261 260
229 233 229 214 204 195 187 184 182 171 166 169 173 177 173 180 200 235 253 279 294 289 286 293 297 298 300 295 301 298 294 290 289 284 279 274 270 268 263 261 258 259 260
255 236 223 201 198 192 186 179 177 170 165 168 169 164 171 177 202 224 261 280 274 283 295 296 304 306 303 304 302 300 296 296 294 290 285 282 277 268 267 264 261 257 254
263 257 208 203 198 189 180 181 169 156 162 163 162 168 171 179 195 216 249 264 284 299 298 302 308 306 304 304 306 308 299 297 295 292 290 285 275 273 266 266 266 267 266
267 241 208 203 190 178 174 162 156 156 161 164 164 169 172 177 181 210 246 269 291 300 309 311 304 299 304 308 309 306 304 297 291 290 288 284 279 274 270 266 262 258 250
271 258 207 190 167 167 160 154 152 153 161 169 170 170 170 166 175 196 240 279 296 311 301 298 304 304 301 304 307 310 303 292 297 290 287 280 276 276 276 274 272 270 253
235 157 155 157 159 160 156 156 160 158 164 166 163 157 160 160 166 175 244 318 305 297 303 310 307 298 292 292 310 309 299 297 297 289 280 277 277 276 277 274 275 273 274
156 150 150 159 159 157 160 156 155 164 153 145 146 149 158 166 165 165 344 303 305 311 312 311 308 296 299 303 309 313 307 302 301 309 303 294 293 290 283 278 274 276 282
160 163 151 153 153 158 158 153 152 138 139 140 143 148 156 176 157 153 143 253 308 317 324 316 306 313 315 314 312 318 320 318 317 308 305 299 300 293 285 274 274 274 277
172 170 155 146 155 164 158 148 137 144 144 143 142 155 158 168 161 161 131 95 355 333 326 314 320 319 320 312 316 323 328 326 321 307 322 322 314 294 286 289 283 279 272
177 168 154 155 152 160 145 131 141 143 147 139 148 150 163 159 167 148 127 93 352 338 314 328 322 320 322 323 324 332 332 328 322 331 327 319 332 334 326 298 299 278 270
171 167 164 159 155 153 134 142 145 152 151 149 151 151 155 165 144 114 118 96 303 305 324 326 321 329 328 328 339 344 342 332 331 342 333 329 338 336 336 329 329 322 305
167 168 167 157 155 149 142 147 154 151 145 147 153 150 148 145 118 106 119 106 327 347 338 326 325 334 335 336 341 346 347 340 350 342 340 342 333 337 334 333 329 323 321